TimeEST,TemperatureF,Dew PointF,Humidity,Sea Level PressureIn,VisibilityMPH,Wind Direction,Wind SpeedMPH,Gust SpeedMPH,PrecipitationIn,Events,Conditions,WindDirDegrees,DateUTC
12:15 AM,17.6,17.6,100,30.33,9.0,Calm,Calm,-,N/A,,Clear,0,2013-01-09 05:15:00
12:35 AM,19.4,19.4,100,30.34,10.0,Calm,Calm,-,N/A,,Clear,0,2013-01-09 05:35:00
12:55 AM,15.8,14.0,93,30.35,9.0,Calm,Calm,-,N/A,,Clear,0,2013-01-09 05:55:00
1:15 AM,14.0,12.2,93,30.36,10.0,Calm,Calm,-,N/A,,Clear,0,2013-01-09 06:15:00
1:35 AM,17.6,15.8,93,30.36,10.0,NNE,4.6,-,N/A,,Clear,20,2013-01-09 06:35:00
1:55 AM,14.0,8.6,79,30.36,8.0,Calm,Calm,-,N/A,,Clear,0,2013-01-09 06:55:00
2:15 AM,14.0,12.2,93,30.36,10.0,Calm,Calm,-,N/A,,Clear,0,2013-01-09 07:15:00
2:35 AM,17.6,15.8,93,30.35,9.0,Calm,Calm,-,N/A,,Clear,0,2013-01-09 07:35:00
2:55 AM,14.0,12.2,93,30.35,9.0,Calm,Calm,-,N/A,,Clear,0,2013-01-09 07:55:00
3:15 AM,12.2,10.4,92,30.35,9.0,Calm,Calm,-,N/A,,Clear,0,2013-01-09 08:15:00
3:35 AM,14.0,12.2,93,30.35,10.0,Calm,Calm,-,N/A,,Clear,0,2013-01-09 08:35:00
3:55 AM,15.8,15.8,100,30.34,8.0,Calm,Calm,-,N/A,,Clear,0,2013-01-09 08:55:00
4:15 AM,12.2,8.6,85,30.35,10.0,Calm,Calm,-,N/A,,Clear,0,2013-01-09 09:15:00
4:35 AM,14.0,8.6,79,30.33,8.0,Calm,Calm,-,N/A,,Clear,0,2013-01-09 09:35:00
4:55 AM,12.2,12.2,100,30.33,9.0,Calm,Calm,-,N/A,,Clear,0,2013-01-09 09:55:00
5:15 AM,12.2,10.4,92,30.33,10.0,Calm,Calm,-,N/A,,Clear,0,2013-01-09 10:15:00
5:35 AM,12.2,12.2,100,30.34,9.0,Calm,Calm,-,N/A,,Clear,0,2013-01-09 10:35:00
5:55 AM,12.2,6.8,79,30.35,8.0,Calm,Calm,-,N/A,,Clear,0,2013-01-09 10:55:00
6:15 AM,12.2,12.2,100,30.35,8.0,Calm,Calm,-,N/A,,Clear,0,2013-01-09 11:15:00
6:35 AM,10.4,8.6,92,30.36,9.0,Calm,Calm,-,N/A,,Partly Cloudy,0,2013-01-09 11:35:00
7:15 AM,8.6,8.6,100,30.38,7.0,Calm,Calm,-,N/A,,Clear,0,2013-01-09 12:15:00
7:35 AM,10.4,8.6,92,30.38,7.0,Calm,Calm,-,N/A,,Clear,0,2013-01-09 12:35:00
7:55 AM,14.0,10.4,86,30.38,6.0,Calm,Calm,-,N/A,,Clear,0,2013-01-09 12:55:00
8:15 AM,14.0,10.4,86,30.38,6.0,Calm,Calm,-,N/A,,Clear,0,2013-01-09 13:15:00
8:35 AM,15.8,12.2,86,30.37,7.0,Calm,Calm,-,N/A,,Clear,0,2013-01-09 13:35:00
9:15 AM,15.8,14.0,93,30.36,7.0,Calm,Calm,-,N/A,,Scattered Clouds,0,2013-01-09 14:15:00
9:35 AM,19.4,15.8,86,30.36,8.0,Calm,Calm,-,N/A,,Mostly Cloudy,0,2013-01-09 14:35:00
9:55 AM,21.2,15.8,80,30.35,8.0,Calm,Calm,-,N/A,,Mostly Cloudy,0,2013-01-09 14:55:00
10:15 AM,23.0,17.6,80,30.34,9.0,Calm,Calm,-,N/A,,Overcast,0,2013-01-09 15:15:00
10:35 AM,24.8,19.4,80,30.32,10.0,Calm,Calm,-,N/A,,Overcast,0,2013-01-09 15:35:00
11:15 AM,26.6,19.4,74,30.29,10.0,Calm,Calm,-,N/A,,Overcast,0,2013-01-09 16:15:00
11:35 AM,28.4,21.2,74,30.27,10.0,Calm,Calm,-,N/A,,Overcast,0,2013-01-09 16:35:00
11:55 AM,28.4,19.4,69,30.25,10.0,Calm,Calm,-,N/A,,Overcast,0,2013-01-09 16:55:00
12:15 PM,30.2,21.2,69,30.23,10.0,Calm,Calm,-,N/A,,Overcast,0,2013-01-09 17:15:00
12:35 PM,30.2,21.2,69,30.20,10.0,Calm,Calm,-,N/A,,Overcast,0,2013-01-09 17:35:00
12:55 PM,30.2,21.2,69,30.18,10.0,Calm,Calm,-,N/A,,Mostly Cloudy,0,2013-01-09 17:55:00
1:15 PM,30.2,21.2,69,30.15,9.0,Calm,Calm,-,N/A,,Partly Cloudy,0,2013-01-09 18:15:00
1:35 PM,30.2,21.2,69,30.13,10.0,Calm,Calm,-,N/A,,Partly Cloudy,0,2013-01-09 18:35:00
1:55 PM,30.2,23.0,75,30.12,10.0,Calm,Calm,-,N/A,,Scattered Clouds,0,2013-01-09 18:55:00
2:15 PM,32.0,21.2,64,30.14,10.0,Calm,Calm,-,N/A,,Clear,0,2013-01-09 19:15:00
2:35 PM,32.0,23.0,69,30.14,10.0,Calm,Calm,-,N/A,,Clear,0,2013-01-09 19:35:00
2:55 PM,32.0,21.2,64,30.12,10.0,SE,5.8,-,N/A,,Clear,140,2013-01-09 19:55:00
3:15 PM,32.0,23.0,69,30.10,9.0,Calm,Calm,-,N/A,,Clear,0,2013-01-09 20:15:00
3:35 PM,32.0,24.8,75,30.07,10.0,SE,6.9,-,N/A,,Clear,140,2013-01-09 20:35:00
3:55 PM,33.8,24.8,70,30.06,10.0,Calm,Calm,-,N/A,,Mostly Cloudy,0,2013-01-09 20:55:00
4:15 PM,32.0,24.8,75,30.04,10.0,Calm,Calm,-,N/A,,Overcast,0,2013-01-09 21:15:00
4:35 PM,32.0,24.8,75,30.03,10.0,SE,5.8,-,N/A,,Overcast,140,2013-01-09 21:35:00
4:55 PM,33.8,26.6,75,29.98,10.0,SE,9.2,-,N/A,,Overcast,140,2013-01-09 21:55:00
5:15 PM,33.8,26.6,75,29.98,10.0,South,6.9,-,N/A,,Overcast,180,2013-01-09 22:15:00
5:35 PM,33.8,26.6,75,29.97,10.0,South,4.6,-,N/A,,Overcast,190,2013-01-09 22:35:00
5:55 PM,32.0,26.6,80,29.96,10.0,SSW,4.6,-,N/A,,Overcast,200,2013-01-09 22:55:00
6:15 PM,33.8,26.6,75,29.94,10.0,South,5.8,-,N/A,,Overcast,180,2013-01-09 23:15:00
6:35 PM,32.0,26.6,80,29.93,10.0,Calm,Calm,-,N/A,,Overcast,0,2013-01-09 23:35:00
6:55 PM,32.0,26.6,80,29.93,10.0,Calm,Calm,-,N/A,,Overcast,0,2013-01-09 23:55:00
7:15 PM,32.0,26.6,80,29.90,10.0,SE,4.6,-,N/A,,Mostly Cloudy,140,2013-01-10 00:15:00
7:35 PM,30.2,24.8,80,29.90,10.0,Calm,Calm,-,N/A,,Partly Cloudy,0,2013-01-10 00:35:00
7:55 PM,30.2,26.6,86,29.90,10.0,South,4.6,-,N/A,,Partly Cloudy,180,2013-01-10 00:55:00
8:15 PM,30.2,26.6,86,29.88,10.0,South,5.8,-,N/A,,Clear,170,2013-01-10 01:15:00
9:15 PM,24.8,19.4,80,29.86,8.0,Calm,Calm,-,N/A,,Clear,0,2013-01-10 02:15:00
9:55 PM,24.8,21.2,86,29.87,9.0,Calm,Calm,-,N/A,,Clear,0,2013-01-10 02:55:00
10:15 PM,26.6,24.8,93,29.88,9.0,NNW,5.8,-,N/A,,Scattered Clouds,340,2013-01-10 03:15:00
10:35 PM,30.2,24.8,80,29.88,10.0,North,3.5,-,N/A,,Partly Cloudy,10,2013-01-10 03:35:00
10:55 PM,26.6,19.4,74,29.88,10.0,NNW,4.6,-,N/A,,Clear,340,2013-01-10 03:55:00
11:15 PM,26.6,21.2,80,29.87,10.0,North,4.6,-,N/A,,Scattered Clouds,360,2013-01-10 04:15:00
11:35 PM,26.6,21.2,80,29.88,10.0,SW,4.6,-,N/A,,Scattered Clouds,230,2013-01-10 04:35:00
11:55 PM,26.6,23.0,86,29.88,10.0,Calm,Calm,-,N/A,,Mostly Cloudy,0,2013-01-10 04:55:00